星链-37012(STARLINK-37012)

导读

STARLINK-37012(NORAD编号68221)是美国太空探索技术公司(SpaceX)星链(Starlink)项目的低轨互联网卫星,于2024年12月8日发射入轨,截至2026年4月已在轨飞行超过480天。该卫星属于Starlink V1.0平台,运行在近地点约355公里、远地点约357公里的近地轨道,轨道倾角43.001°,周期约91.66分钟,旨在为全球提供高速低延迟卫星互联网服务,支持偏远地区通信、行业应用等场景,是星链全球卫星互联网组网的组成部分。

Basic Information
目录编号:
68221
目录名称:
STARLINK-37012
国际标识:
2026-053Q
轨道中心:
EARTH
卫星名称:
星链-37012
卫星全名:
星链-37012(STARLINK-37012)
卫星状态:
在轨 (已飞行180 天)
发射日期:
2026-03-17 UTC
国别 :
美国 (US)
星等 :
--
This satellite is enrolled in the Space Conjunction Data Service (SCDS) and the current flight risk assessment level is: No High Risk
Orbit Information
数据来源 国际轨道数据
星历时间: 2026-09-12T22:30:27+0800
20小时前
查看轨道信息
半长轴: 6843.696km
偏心率: 0.0001908
轨道倾角: 97.284°
近地点辐角 100.984°
升交点赤经 129.498°
平近点角 259.161°
近地点: 464.253km
远地点: 466.865km
周期: 93.907分钟
每日圈数: 15.334398
Detailed Information
固有亮度:
5
最大亮度:
2.5
卫星平台:
Starlink V1.0
覆盖范围:
全球
运营商:
太空探索技术公司
运营商所在国:
美国
制造商(研发单位):
太空探索技术公司
制造商所在国:
美国
使用方式:
暂无
Satellite Introduction
Starlink 计划是 SpaceX 推出的全球卫星互联网项目,通过发射低轨道卫星,为全球尤其是偏远地区提供高速、低延迟的互联网服务。自 2019 年起,Starlink 已部署数千颗卫星,旨在缩小全球数字鸿沟,推动互联网普及。该项目还为军事、航空等行业提供通信支持,带来广泛经济效益。
2D Orbit Map
3D Orbit Map
Orbit Altitude Analysis Chart
Orbit Inclination Analysis Chart
Orbit Comprehensive Analysis Chart
View Comprehensive Chart
Conjunction Data List
Event ID Objects TCA Miss Dist (km) Collision Risk Probability Collision Risk Index (CRI) Action
CDM_260914-154005-246906-822121
2026-09-14T
15:40:16+0000
2.179 km
极远距离
2.278488E-6 低风险 0.42
CDM_260914-045904-857806-822121
2026-09-14T
04:59:33+0000
2.953 km
极远距离
1.354213E-6 低风险 0.38
CDM_260914-223905-284406-822121
2026-09-14T
22:39:46+0000
2.838 km
极远距离
1.343261E-6 低风险 0.38
CDM_260914-235104-943206-822121
2026-09-14T
23:51:51+0000
2.966 km
极远距离
9.87925E-7 极低风险 0.35
Miss Distance Evolution Trend with All Objects
Collision Probability Evolution Trend with All Objects